Fort Smith, AR

5:49 PM CDT on March 22, 2017 (GMT -0500)
Fort Smith Regional

Weather History for KFSM - November, 2013

Change the Weather History Date:

Friday, November 1, 2013

  Actual Average Record
Temperature  
Mean Temperature 59 °F 58 °F  
Max Temperature 74 °F 70 °F 86 °F (2003)
Min Temperature 44 °F 46 °F 26 °F (1993)
Degree Days  
Heating Degree Days 6 8  
Month to date heating degree days 6 8  
Since 1 July heating degree days 141 162  
Cooling Degree Days 0 1  
Month to date cooling degree days 0 1  
Year to date cooling degree days 2310 2047  
Growing Degree Days 8 (Base 50)    
Moisture  
Dew Point 44 °F    
Average Humidity 65    
Maximum Humidity 100    
Minimum Humidity 29    
Precipitation  
Precipitation 0.00 in 0.15 in 2.18 in (1972)
Month to date precipitation 0.00 0.15  
Year to date precipitation 40.55 37.88  
Sea Level Pressure  
Sea Level Pressure 29.87 in    
Wind  
Wind Speed 6 mph (West)    
Max Wind Speed 17 mph    
Max Gust Speed 22 mph    
Visibility 8 miles    
Events Fog    
T = Trace of Precipitation, MM = Missing Value Source: NWS Daily Summary

Daily Weather History Graph

Daily Weather History Graph

Search for Another Location

Airport or City:

Trip Planner

Search our weather history database for the weather conditions in past years. The results will help you decide how hot, cold, wet, or windy it might be!

Date:

Astronomy

Nov. 01, 2013 Rise Set
Actual Time 7:39 AM CDT 6:22 PM CDT
Civil Twilight 7:12 AM CDT 6:48 PM CDT
Nautical Twilight 6:42 AM CDT 7:18 PM CDT
Astronomical Twilight 6:13 AM CDT 7:48 PM CDT
Moon 5:36 AM CDT (11/1) 5:12 PM CDT (11/1)
Length of Visible Light 11h 35m
Length of Day
10h 43m
Waning Crescent, 4% of the Moon is Illuminated
Nov 1
Waning Crescent
Nov 3
New
Nov 9
First Quarter
Nov 17
Full
Nov 25
Last Quarter

Hourly Weather History & Observations

Time (CDT) Temp. Windchill Dew Point Humidity Pressure Visibility Wind Dir Wind Speed Gust Speed Precip Events Conditions
12:53 AM 52.0 °F - 46.9 °F 83% 29.81 in 10.0 mi SW 4.6 mph - N/A   Clear
1:53 AM 50.0 °F - 46.9 °F 89% 29.81 in 10.0 mi WSW 4.6 mph - N/A   Clear
2:53 AM 51.1 °F - 46.9 °F 86% 29.81 in 10.0 mi Calm Calm - N/A   Clear
3:53 AM 48.0 °F - 45.0 °F 89% 29.81 in 10.0 mi Calm Calm - N/A   Clear
4:53 AM 46.9 °F - 44.1 °F 90% 29.81 in 10.0 mi Calm Calm - N/A   Clear
5:53 AM 46.0 °F - 44.1 °F 93% 29.82 in 10.0 mi Calm Calm - N/A   Clear
6:53 AM 45.0 °F - 42.1 °F 90% 29.83 in 10.0 mi Calm Calm - N/A   Clear
7:14 AM 44.6 °F 43.1 °F 42.8 °F 93% 29.84 in 5.0 mi NNE 3.5 mph - N/A   Partly Cloudy
7:16 AM 44.6 °F 43.1 °F 42.8 °F 93% 29.84 in 1.2 mi NE 3.5 mph - N/A   Scattered Clouds
7:20 AM 44.6 °F - 42.8 °F 93% 29.84 in 0.2 mi Calm Calm - N/A Fog Fog
7:53 AM 45.0 °F - 43.0 °F 93% 29.85 in 0.2 mi Calm Calm - N/A Fog Fog
8:53 AM 46.9 °F - 46.0 °F 97% 29.87 in 0.2 mi Calm Calm - N/A Fog Fog
9:04 AM 48.2 °F - 46.4 °F 93% 29.88 in 1.0 mi Calm Calm - N/A   Mist
9:06 AM 48.2 °F - 46.4 °F 93% 29.88 in 2.5 mi Calm Calm - N/A   Mostly Cloudy
9:13 AM 50.0 °F - 48.2 °F 94% 29.88 in 9.0 mi Calm Calm - N/A   Clear
9:24 AM 50.0 °F - 48.2 °F 94% 29.88 in 10.0 mi Calm Calm - N/A   Partly Cloudy
9:53 AM 55.9 °F - 50.0 °F 80% 29.88 in 10.0 mi Calm Calm - N/A   Clear
10:53 AM 62.1 °F - 46.9 °F 58% 29.89 in 10.0 mi WSW 8.1 mph - N/A   Clear
11:53 AM 66.0 °F - 45.0 °F 47% 29.89 in 10.0 mi WSW 8.1 mph - N/A   Clear
12:53 PM 68.0 °F - 43.0 °F 40% 29.87 in 10.0 mi WSW 10.4 mph - N/A   Clear
1:53 PM 71.1 °F - 37.9 °F 30% 29.86 in 10.0 mi West 16.1 mph - N/A   Clear
2:53 PM 72.0 °F - 41.0 °F 33% 29.85 in 9.0 mi WNW 15.0 mph - N/A   Clear
3:53 PM 72.0 °F - 42.1 °F 34% 29.83 in 9.0 mi WSW 13.8 mph - N/A   Clear
4:53 PM 71.1 °F - 43.0 °F 36% 29.83 in 10.0 mi SW 11.5 mph - N/A   Clear
5:53 PM 68.0 °F - 44.1 °F 42% 29.84 in 10.0 mi WSW 9.2 mph - N/A   Clear
6:53 PM 64.9 °F - 44.1 °F 47% 29.88 in 10.0 mi WNW 8.1 mph - N/A   Clear
7:53 PM 63.0 °F - 39.9 °F 43% 29.91 in 10.0 mi WNW 8.1 mph - N/A   Clear
8:53 PM 62.1 °F - 41.0 °F 46% 29.95 in 10.0 mi WNW 8.1 mph - N/A   Clear
9:53 PM 61.0 °F - 41.0 °F 48% 29.99 in 10.0 mi NW 9.2 mph - N/A   Mostly Cloudy
10:53 PM 59.0 °F - 41.0 °F 51% 30.02 in 10.0 mi WNW 8.1 mph - N/A   Clear
11:53 PM 55.9 °F - 42.1 °F 60% 30.02 in 10.0 mi WNW 6.9 mph - N/A   Clear